When you browse on this site, cookies collect data to enhance your experience and personalize the content and advertising you see.
Visit our Privacy Policy to learn more. By continuing to use the site, you agree to this use of cookies and data.
  • In United Kingdom
  • List of Countries
  • For 7 days
  • Water Temperature
  • Satellite Maps
  • Weather Map
  • Weather Widgets
  • user-avatar
    Login

    Hourly Weather Bissau

    Today, 20 February, Wednesday

    Time Temperature Precipitation Wind Pressure Humidity
    00:00 +27°C° 0 mm 3 mps 757 mmHg 32%
    01:00 +27°C° 0 mm 3 mps 757 mmHg 31%
    02:00 +26°C° 0 mm 3 mps 757 mmHg 30%
    03:00 +26°C° 0 mm 2 mps 757 mmHg 32%
    04:00 +26°C° 0 mm 2 mps 757 mmHg 33%
    05:00 +26°C° 0 mm 2 mps 757 mmHg 34%
    06:00 +26°C° 0 mm 2 mps 757 mmHg 31%
    07:00 +27°C° 0 mm 1 mps 758 mmHg 28%
    08:00 +28°C° 0 mm 1 mps 758 mmHg 25%
    09:00 +31°C° 0 mm 1 mps 758 mmHg 21%
    10:00 +34°C° 0 mm 1 mps 758 mmHg 16%
    11:00 +37°C° 0 mm 1 mps 759 mmHg 12%
    12:00 +39°C° 0 mm 2 mps 758 mmHg 12%
    13:00 +41°C° 0 mm 2 mps 757 mmHg 11%
    14:00 +42°C° 0 mm 2 mps 756 mmHg 11%
    15:00 +40°C° 0 mm 3 mps 756 mmHg 14%
    16:00 +40°C° 0 mm 4 mps 756 mmHg 17%
    17:00 +37°C° 0 mm 5 mps 756 mmHg 20%
    18:00 +35°C° 0 mm 5 mps 756 mmHg 24%
    19:00 +33°C° 0 mm 4 mps 757 mmHg 28%
    20:00 +30°C° 0 mm 4 mps 757 mmHg 32%
    21:00 +30°C° 0 mm 4 mps 758 mmHg 33%
    22:00 +29°C° 0 mm 3 mps 758 mmHg 33%
    23:00 +28°C° 0 mm 3 mps 759 mmHg 34%

    Tomorrow, 21 February, Thursday

    Time Temperature Precipitation Wind Pressure Humidity
    00:00 +28°C° 0 mm 3 mps 758 mmHg 34%
    01:00 +27°C° 0 mm 2 mps 758 mmHg 33%
    02:00 +27°C° 0 mm 2 mps 758 mmHg 33%
    03:00 +26°C° 0 mm 2 mps 758 mmHg 34%
    04:00 +25°C° 0 mm 2 mps 758 mmHg 35%
    05:00 +25°C° 0 mm 2 mps 758 mmHg 37%
    06:00 +25°C° 0 mm 2 mps 758 mmHg 34%
    07:00 +26°C° 0 mm 3 mps 759 mmHg 32%
    08:00 +27°C° 0 mm 3 mps 759 mmHg 30%
    09:00 +30°C° 0 mm 2 mps 759 mmHg 25%
    10:00 +35°C° 0 mm 2 mps 759 mmHg 20%
    11:00 +37°C° 0 mm 1 mps 759 mmHg 15%
    12:00 +39°C° 0 mm 2 mps 759 mmHg 14%
    13:00 +40°C° 0 mm 2 mps 758 mmHg 13%
    14:00 +42°C° 0 mm 3 mps 757 mmHg 12%
    15:00 +41°C° 0 mm 4 mps 757 mmHg 16%
    16:00 +38°C° 0 mm 4 mps 757 mmHg 21%
    17:00 +36°C° 0 mm 5 mps 756 mmHg 25%
    18:00 +34°C° 0 mm 4 mps 757 mmHg 31%
    19:00 +32°C° 0 mm 4 mps 758 mmHg 37%
    20:00 +29°C° 0 mm 3 mps 758 mmHg 42%
    21:00 +29°C° 0 mm 3 mps 759 mmHg 42%
    22:00 +28°C° 0 mm 3 mps 759 mmHg 41%
    23:00 +28°C° 0 mm 3 mps 760 mmHg 41%

    Day after tomorrow, 22 February, Friday

    Time Temperature Precipitation Wind Pressure Humidity
    00:00 +28°C° 0 mm 3 mps 759 mmHg 40%
    01:00 +27°C° 0 mm 2 mps 759 mmHg 39%
    02:00 +27°C° 0 mm 2 mps 758 mmHg 39%
    03:00 +27°C° 0 mm 3 mps 758 mmHg 36%
    04:00 +26°C° 0 mm 3 mps 758 mmHg 33%
    05:00 +26°C° 0 mm 3 mps 758 mmHg 31%
    06:00 +27°C° 0 mm 3 mps 759 mmHg 27%
    07:00 +28°C° 0 mm 4 mps 759 mmHg 24%
    08:00 +29°C° 0 mm 4 mps 760 mmHg 20%
    09:00 +33°C° 0 mm 4 mps 759 mmHg 17%
    10:00 +37°C° 0 mm 4 mps 759 mmHg 15%
    11:00 +41°C° 0 mm 4 mps 759 mmHg 12%
    12:00 +42°C° 0 mm 4 mps 758 mmHg 12%
    13:00 +43°C° 0 mm 4 mps 757 mmHg 12%
    14:00 +44°C° 0 mm 4 mps 756 mmHg 12%
    15:00 +41°C° 0 mm 4 mps 756 mmHg 20%
    16:00 +39°C° 0 mm 5 mps 756 mmHg 28%
    17:00 +35°C° 0 mm 5 mps 755 mmHg 36%
    18:00 +33°C° 0 mm 4 mps 756 mmHg 43%
    19:00 +29°C° 0 mm 4 mps 757 mmHg 50%
    20:00 +27°C° 0 mm 3 mps 758 mmHg 57%
    21:00 +27°C° 0 mm 2 mps 758 mmHg 55%
    22:00 +27°C° 0 mm 2 mps 759 mmHg 52%
    23:00 +27°C° 0 mm 1 mps 759 mmHg 50%

    23 February, Saturday

    Time Temperature Precipitation Wind Pressure Humidity
    00:00 +26°C° 0 mm 1 mps 758 mmHg 50%
    01:00 +26°C° 0 mm 1 mps 758 mmHg 49%
    02:00 +26°C° 0 mm 1 mps 757 mmHg 49%
    03:00 +25°C° 0 mm 2 mps 757 mmHg 48%
    04:00 +25°C° 0 mm 2 mps 757 mmHg 47%
    05:00 +25°C° 0 mm 2 mps 757 mmHg 46%
    06:00 +26°C° 0 mm 2 mps 758 mmHg 41%
    07:00 +27°C° 0 mm 3 mps 758 mmHg 36%
    08:00 +29°C° 0 mm 3 mps 758 mmHg 31%
    09:00 +33°C° 0 mm 3 mps 758 mmHg 25%
    10:00 +36°C° 0 mm 4 mps 758 mmHg 18%
    11:00 +41°C° 0 mm 5 mps 758 mmHg 12%
    12:00 +42°C° 0 mm 4 mps 757 mmHg 11%
    13:00 +43°C° 0 mm 4 mps 756 mmHg 11%
    14:00 +44°C° 0 mm 3 mps 755 mmHg 11%
    15:00 +43°C° 0 mm 3 mps 755 mmHg 14%
    16:00 +40°C° 0 mm 3 mps 755 mmHg 18%
    17:00 +39°C° 0 mm 3 mps 755 mmHg 21%
    18:00 +36°C° 0 mm 3 mps 755 mmHg 32%
    19:00 +33°C° 0 mm 3 mps 756 mmHg 44%
    20:00 +28°C° 0 mm 3 mps 757 mmHg 55%
    21:00 +28°C° 0 mm 3 mps 757 mmHg 57%
    22:00 +27°C° 0 mm 2 mps 757 mmHg 59%
    23:00 +26°C° 0 mm 2 mps 758 mmHg 60%

    24 February, Sunday

    Time Temperature Precipitation Wind Pressure Humidity
    00:00 +26°C° 0 mm 2 mps 757 mmHg 60%
    01:00 +25°C° 0 mm 1 mps 757 mmHg 60%
    02:00 +23°C° 0 mm 0 mps 756 mmHg 60%
    03:00 +25°C° 0 mm 1 mps 756 mmHg 57%
    04:00 +24°C° 0 mm 1 mps 756 mmHg 55%
    05:00 +24°C° 0 mm 1 mps 756 mmHg 52%
    06:00 +25°C° 0 mm 2 mps 757 mmHg 44%
    07:00 +27°C° 0 mm 2 mps 757 mmHg 37%
    08:00 +28°C° 0 mm 3 mps 758 mmHg 29%
    09:00 +31°C° 0 mm 3 mps 758 mmHg 22%
    10:00 +35°C° 0 mm 3 mps 758 mmHg 16%
    11:00 +38°C° 0 mm 3 mps 758 mmHg 10%
    12:00 +39°C° 0 mm 3 mps 757 mmHg 10%
    13:00 +40°C° 0 mm 3 mps 756 mmHg 11%
    14:00 +42°C° 0 mm 2 mps 755 mmHg 12%
    15:00 +39°C° 0 mm 3 mps 755 mmHg 20%
    16:00 +36°C° 0 mm 5 mps 755 mmHg 29%
    17:00 +34°C° 0 mm 6 mps 755 mmHg 38%
    18:00 +32°C° 0 mm 5 mps 755 mmHg 46%
    19:00 +29°C° 0 mm 4 mps 756 mmHg 54%
    20:00 +27°C° 0 mm 3 mps 756 mmHg 62%
    21:00 +26°C° 0 mm 3 mps 757 mmHg 63%
    22:00 +26°C° 0 mm 3 mps 757 mmHg 63%
    23:00 +25°C° 0 mm 3 mps 757 mmHg 64%

    25 February, Monday

    Time Temperature Precipitation Wind Pressure Humidity
    00:00 +25°C° 0 mm 2 mps 757 mmHg 60%
    01:00 +24°C° 0 mm 2 mps 757 mmHg 57%
    02:00 +24°C° 0 mm 2 mps 756 mmHg 54%
    03:00 +23°C° 0 mm 1 mps 756 mmHg 54%
    04:00 +23°C° 0 mm 1 mps 756 mmHg 53%
    05:00 +20°C° 0 mm 0 mps 756 mmHg 53%
    06:00 +23°C° 0 mm 1 mps 757 mmHg 48%
    07:00 +25°C° 0 mm 1 mps 757 mmHg 43%
    08:00 +26°C° 0 mm 2 mps 757 mmHg 38%
    09:00 +29°C° 0 mm 2 mps 757 mmHg 31%
    10:00 +34°C° 0 mm 3 mps 757 mmHg 24%
    11:00 +37°C° 0 mm 3 mps 757 mmHg 17%
    12:00 +38°C° 0 mm 3 mps 756 mmHg 16%
    13:00 +39°C° 0 mm 3 mps 755 mmHg 15%
    14:00 +42°C° 0 mm 3 mps 755 mmHg 14%
    15:00 +38°C° 0 mm 4 mps 755 mmHg 21%
    16:00 +36°C° 0 mm 5 mps 755 mmHg 29%
    17:00 +34°C° 0 mm 6 mps 755 mmHg 36%
    18:00 +32°C° 0 mm 5 mps 755 mmHg 44%
    19:00 +29°C° 0 mm 4 mps 756 mmHg 52%
    20:00 +27°C° 0 mm 3 mps 756 mmHg 60%
    21:00 +26°C° 0 mm 3 mps 756 mmHg 60%
    22:00 +26°C° 0 mm 2 mps 757 mmHg 60%
    23:00 +26°C° 0 mm 2 mps 757 mmHg 61%
    Show more